GEFSMA_500_meanwind_006.txt.gz
Wind_Speed
33 33 32 32 32 33 32 31 29 27 27 27 28 27 25 23 22 22 23 24 25 26 26 25 25 23 22 21 20 20 21 21 20 19 18 19 19 18 18 16 15 14 11
36 36 36 35 35 35 35 34 33 32 32 31 32 33 32 29 28 26 25 26 27 29 30 29 28 26 25 24 23 22 22 21 21 21 20 20 20 20 19 19 18 17 15
33 34 35 35 36 36 36 35 33 34 36 36 36 37 37 36 36 34 30 28 28 31 33 33 32 30 27 26 25 25 25 23 22 22 22 21 21 22 21 20 19 18 17
35 35 36 35 36 38 38 37 36 36 38 39 40 41 42 42 41 38 34 32 31 32 35 37 37 35 31 29 29 28 27 26 24 23 23 23 23 23 23 22 20 19 18
38 38 39 39 40 41 41 40 39 38 39 42 43 42 43 44 44 42 38 35 33 34 37 39 40 38 36 34 33 31 28 27 27 25 24 25 25 25 25 24 22 20 19
41 42 42 43 43 44 43 42 41 41 42 43 45 44 43 43 43 41 37 33 33 35 37 39 40 40 38 37 36 34 30 28 27 26 26 27 28 28 28 27 25 23 22
42 42 42 42 42 43 43 43 43 43 44 45 46 45 43 40 39 39 38 36 36 38 37 37 38 39 38 38 37 37 32 28 28 30 30 30 29 30 30 30 28 26 26
39 40 40 40 40 40 41 42 42 42 42 43 44 43 41 40 39 41 42 41 39 38 37 36 38 38 36 37 38 38 33 29 29 31 31 30 29 30 31 31 31 30 29
35 36 37 38 39 40 41 42 43 43 42 43 43 43 42 41 39 38 39 39 37 34 33 34 36 36 34 35 37 35 30 28 29 31 31 29 28 30 30 30 30 29 30
36 36 37 39 41 42 43 43 43 44 45 45 46 45 44 42 40 36 35 35 33 30 31 33 34 34 32 34 35 33 30 29 30 30 27 26 26 28 28 29 29 30 30
40 40 41 42 43 43 43 42 43 44 45 46 47 47 46 42 39 37 35 33 30 29 30 33 34 32 32 34 35 34 33 33 31 28 25 23 24 25 27 28 26 27 27
41 41 42 42 43 43 43 43 44 45 46 47 48 48 45 42 39 36 33 30 28 29 30 32 33 33 33 34 35 35 35 33 31 28 26 24 23 23 24 25 25 25 26
41 41 42 42 43 44 45 45 45 45 46 47 47 46 44 41 37 34 31 29 28 28 28 29 31 32 33 35 35 35 33 32 29 28 26 26 25 24 24 24 25 25 25
42 42 42 43 43 45 46 47 46 45 45 46 45 43 41 37 33 30 30 30 31 32 29 28 29 31 33 35 34 34 32 30 29 28 27 26 25 25 26 27 28 29 30
45 44 44 43 44 45 45 43 41 39 41 41 40 38 35 31 26 25 26 28 31 35 34 31 31 32 33 32 30 30 30 30 29 28 27 27 26 27 27 28 30 31 32
44 44 44 44 44 42 39 35 33 32 32 32 31 29 27 24 22 24 27 30 34 36 36 32 30 29 27 26 27 29 30 30 29 28 29 28 28 27 27 28 30 31 32
41 40 40 40 38 36 31 26 23 21 22 22 22 22 21 22 26 29 30 32 32 31 30 26 24 21 22 24 26 27 29 29 29 29 31 30 30 30 31 32 33 34 34
34 35 34 32 31 28 23 19 17 17 17 20 21 23 26 28 29 29 28 26 23 20 17 15 17 20 22 24 25 26 27 27 28 29 30 29 30 31 32 33 35 36 36
28 28 27 26 25 22 20 18 18 18 16 16 17 18 19 20 22 21 20 18 16 14 15 18 19 21 22 24 25 25 25 26 27 28 29 29 30 31 33 34 36 37 38
22 21 22 21 19 19 19 20 21 20 18 17 16 15 14 14 15 15 16 15 14 16 18 20 20 20 22 23 24 24 26 26 28 29 31 31 32 34 36 37 37 38 39
19 19 19 18 16 16 18 20 21 21 20 19 17 15 14 13 13 14 15 15 16 18 19 20 20 20 21 22 24 26 27 29 30 32 32 33 35 36 37 37 38 39 40
17 17 16 15 14 12 14 16 16 16 16 16 16 15 14 13 12 13 14 15 15 17 18 19 20 20 21 23 25 27 27 28 29 31 33 35 38 39 40 41 41 42 42
18 16 15 14 13 12 10 12 13 14 15 16 16 15 15 14 14 14 14 14 15 15 16 18 19 20 21 22 22 22 22 24 26 28 30 32 34 36 38 40 41 43 44
18 16 15 15 15 13 11 11 13 14 15 16 16 16 15 14 14 14 14 13 13 13 13 14 15 15 16 16 18 20 24 27 30 32 34 36 38 40 41 41 42 42 42
19 17 16 15 15 14 13 12 12 13 13 14 14 13 11 11 11 12 12 11 11 10 9 9 10 13 15 18 21 24 27 30 33 35 37 38 39 41 43 43 42 41 40
20 17 16 15 16 16 14 11 10 11 11 11 11 10 9 9 9 9 9 9 7 6 7 8 11 14 18 21 25 28 30 32 34 34 35 36 35 36 37 38 37 36 36

GEFSMA_500_meanwind_012.txt.gz
Wind_Speed
39 39 38 38 38 39 39 38 36 35 35 35 34 33 33 32 31 29 26 25 24 23 22 23 23 23 23 22 20 17 15 14 14 13 14 16 17 17 16 16 15 15 15
43 44 43 41 41 42 43 42 40 38 38 38 37 36 35 34 33 32 30 28 28 28 27 27 27 27 27 27 25 23 20 18 17 16 15 15 16 18 19 18 17 16 16
41 41 40 39 38 39 40 40 40 40 40 39 38 37 36 35 34 34 34 32 31 31 32 30 30 30 31 31 30 29 27 24 21 19 18 17 17 17 19 20 20 19 17
38 37 36 36 38 39 38 37 37 38 39 39 38 37 36 36 36 36 35 35 34 33 33 33 33 32 33 33 34 33 32 30 27 23 21 20 19 18 19 21 21 20 19
40 40 39 39 39 40 40 40 41 42 42 42 42 41 40 40 39 38 36 35 34 34 34 34 34 34 34 34 35 36 37 36 32 29 25 23 21 21 21 21 22 22 20
40 41 41 42 42 42 42 43 44 44 44 43 43 42 41 40 38 37 36 36 34 33 33 33 33 34 35 35 35 37 39 39 37 34 30 27 24 23 22 22 22 22 22
37 38 38 38 39 39 40 41 42 42 42 42 41 39 38 37 35 35 35 35 34 33 33 32 32 34 35 36 36 37 39 40 41 38 34 30 27 25 24 23 23 24 24
37 37 37 36 36 35 35 36 37 38 38 38 38 37 36 35 34 34 35 35 34 34 33 32 32 33 35 36 37 37 38 40 42 40 38 34 30 27 25 25 25 26 26
39 39 39 39 38 36 35 35 35 35 36 36 37 37 36 35 36 36 36 36 36 35 33 32 31 32 33 35 36 37 38 40 42 41 39 36 31 28 26 26 26 27 28
40 41 41 41 41 40 38 37 36 36 37 37 38 38 37 36 35 35 37 37 38 36 34 32 32 32 32 32 33 34 35 37 39 40 39 35 31 28 26 26 27 27 28
38 39 40 41 41 41 40 39 38 37 37 37 37 37 37 36 36 35 35 36 37 36 34 33 33 31 30 30 30 31 32 34 36 37 36 34 31 28 26 26 26 27 28
36 37 39 40 41 42 41 40 39 38 37 37 37 37 38 38 37 37 36 35 37 36 34 32 31 30 29 29 30 32 32 31 32 33 33 32 31 29 28 27 27 28 29
36 36 36 38 40 41 41 42 41 40 39 39 39 39 39 39 38 38 37 36 37 36 34 32 30 28 27 28 30 33 33 33 32 32 32 31 31 30 29 29 29 29 29
37 36 35 36 37 38 40 41 41 42 41 41 40 40 39 39 38 37 36 35 35 33 32 30 29 28 30 30 30 33 34 33 33 32 31 31 31 31 31 31 32 32 31
39 38 36 34 34 35 36 37 38 40 41 41 40 39 39 37 36 35 34 33 31 29 28 27 27 28 29 30 30 30 33 34 34 33 32 32 32 31 31 32 33 33 33
39 39 37 34 32 32 33 33 34 36 37 38 38 37 35 34 33 32 31 29 28 27 25 25 26 27 28 30 31 31 32 33 35 35 34 33 32 32 32 32 33 34 35
39 39 37 33 31 30 30 29 30 31 32 33 33 32 31 30 30 29 28 27 26 25 24 25 25 25 26 29 31 33 34 33 35 36 34 31 31 31 32 33 34 35 36
38 38 37 33 31 29 27 26 26 26 27 27 27 27 27 26 25 25 26 26 26 27 26 26 26 27 28 30 31 31 30 28 28 28 28 28 29 30 32 33 34 36 37
38 37 35 33 30 28 27 25 24 23 22 22 22 23 24 24 24 25 27 27 28 29 28 28 27 28 28 27 25 24 22 22 21 21 22 24 26 28 30 32 34 37 39
38 37 34 32 30 28 26 25 23 21 20 20 20 21 23 24 25 27 29 29 29 29 28 26 25 23 22 20 18 17 17 18 20 21 22 24 25 27 29 31 33 35 37
39 37 34 32 30 28 26 24 22 20 19 19 20 20 21 23 24 25 26 26 25 23 22 20 18 17 16 15 15 15 16 17 19 20 22 24 26 28 30 32 34 36 38
40 38 34 32 29 28 25 23 21 18 18 19 20 20 20 20 21 20 19 18 17 16 15 16 17 16 15 14 14 14 15 16 19 21 23 25 27 29 31 33 36 38 40
42 39 35 32 29 27 25 23 21 18 18 19 19 19 19 18 17 17 16 16 16 16 16 16 15 14 13 12 13 14 15 17 18 20 22 24 25 27 30 32 35 38 41
43 41 36 32 29 26 24 22 20 18 18 19 18 17 17 16 16 16 16 16 15 15 14 13 12 11 11 11 12 13 14 15 17 19 21 24 26 29 32 35 38 42 45
45 42 37 32 29 26 24 21 19 18 17 17 17 16 16 15 16 16 15 15 15 13 12 10 10 9 9 10 10 12 13 15 17 19 21 23 25 27 30 33 36 39 43
46 43 39 33 29 27 23 21 18 17 16 15 14 14 14 14 14 15 15 14 13 12 11 10 9 8 8 8 9 10 12 13 14 15 16 18 19 22 24 27 29 31 33

GEFSMA_500_meanwind_018.txt.gz
Wind_Speed
38 38 37 37 38 39 40 42 42 42 42 42 41 40 40 39 37 36 34 33 31 29 28 27 26 26 24 24 23 23 23 23 21 21 20 20 20 20 20 19 19 18 17
37 37 36 36 36 37 36 37 38 39 40 41 41 41 41 41 40 40 38 37 35 32 30 29 29 29 28 27 27 27 27 27 26 25 23 22 21 21 22 22 21 20 19
33 33 33 33 34 35 35 36 36 35 34 35 34 34 35 36 37 37 37 35 33 33 33 31 31 31 30 31 30 30 30 31 30 30 28 26 24 23 22 23 24 23 22
29 30 31 32 34 35 37 38 38 37 36 36 36 34 32 32 33 34 35 33 31 31 32 33 33 32 32 32 32 33 33 34 34 33 33 31 28 26 25 24 24 25 24
25 27 29 31 33 35 36 37 38 39 39 39 39 37 36 35 35 36 35 34 33 32 33 35 36 36 34 34 34 34 35 36 37 37 36 35 34 31 28 27 26 26 26
23 24 27 29 32 35 36 38 38 39 39 39 39 39 37 37 37 38 37 37 35 35 35 36 37 37 36 35 35 35 36 37 38 39 39 38 38 36 34 31 28 27 27
18 20 23 26 30 33 36 38 39 40 39 39 39 37 37 36 36 36 36 37 36 36 36 36 37 38 38 37 37 37 37 37 38 40 41 40 40 40 39 36 32 30 28
16 18 20 23 25 29 32 36 39 41 41 41 40 39 36 35 34 34 35 35 36 37 36 36 37 37 37 38 38 38 38 38 39 40 41 42 42 42 43 41 37 33 31
17 19 20 22 24 26 28 31 35 38 40 41 42 41 39 36 35 34 33 34 35 35 35 36 36 37 37 37 38 38 39 40 39 40 41 42 43 43 44 44 42 37 34
20 21 22 24 25 27 27 29 31 34 37 39 41 42 40 39 37 35 34 34 36 36 36 36 36 37 38 39 39 39 39 40 39 39 40 41 43 44 44 45 44 41 37
23 23 24 25 26 27 28 29 29 31 34 36 39 41 41 40 38 37 36 35 35 36 36 35 35 36 37 39 40 39 39 39 39 39 39 40 42 43 44 45 46 44 41
25 25 25 25 26 27 29 30 30 30 31 33 36 39 40 39 39 37 36 35 35 35 35 34 33 34 35 36 37 38 38 38 38 38 37 37 38 40 42 45 46 45 43
26 25 26 26 26 27 29 30 31 30 30 30 32 35 37 38 38 38 37 36 36 36 35 34 34 34 34 35 36 36 37 37 36 36 36 35 36 37 39 41 43 45 43
27 26 26 26 27 27 28 30 30 30 29 29 30 31 34 35 37 37 37 37 37 37 36 35 35 36 35 35 35 36 36 35 33 33 34 34 34 34 36 38 40 42 43
29 27 27 27 27 27 28 29 31 30 29 28 28 28 30 33 34 36 36 37 37 37 37 36 35 36 36 35 34 35 34 33 33 32 31 31 32 34 36 38 39 41 41
32 29 28 28 27 27 28 29 31 30 29 28 27 27 27 30 32 33 35 36 37 37 37 36 36 36 34 32 30 31 31 31 32 32 31 29 28 32 35 37 38 40 40
34 31 29 28 27 27 28 29 30 30 29 28 27 26 25 26 29 31 32 34 35 35 35 35 36 34 32 30 29 28 29 29 29 28 27 27 28 29 31 34 37 40 41
37 34 31 29 28 27 28 29 30 31 30 29 27 25 24 24 25 27 30 31 32 33 33 34 34 33 31 30 30 28 28 27 27 27 28 29 30 31 32 34 37 40 41
41 37 35 32 30 29 29 30 30 31 31 29 28 26 24 23 23 24 26 27 29 30 30 31 32 32 31 31 31 31 29 27 27 27 27 27 29 29 30 32 35 38 40
45 41 38 36 34 33 32 32 32 31 31 30 28 26 24 22 21 21 23 24 26 28 28 29 30 30 31 30 30 29 27 26 25 24 24 23 24 24 24 24 25 27 29
50 44 41 38 37 36 35 34 33 32 31 30 28 26 24 21 20 20 21 23 25 26 27 27 28 27 29 29 28 27 26 24 22 21 19 18 17 17 16 17 18 20 22
52 48 44 42 41 39 38 37 35 34 32 30 28 26 24 21 19 21 23 24 25 26 27 27 28 29 30 29 28 25 22 20 18 17 15 14 14 15 16 18 20 21 23
56 52 48 47 45 43 41 39 38 35 33 31 28 26 24 22 21 21 23 24 26 28 29 28 29 28 27 24 22 19 18 16 15 14 14 14 15 16 18 19 20 21 23
66 61 57 53 50 47 44 41 39 36 34 32 29 27 25 22 21 21 22 24 25 26 28 28 27 25 22 19 18 17 17 16 14 14 14 14 15 16 17 18 19 21 22
71 65 60 56 52 48 45 42 40 37 35 33 30 28 25 22 22 21 22 23 24 25 25 24 23 20 19 18 18 16 15 14 13 14 14 14 14 15 15 16 18 19 21
65 62 58 53 49 47 45 43 40 39 36 34 31 28 26 23 22 22 21 23 23 23 22 21 21 20 19 18 16 15 14 13 13 12 12 12 12 12 12 14 16 18 20

GEFSMA_500_meanwind_024.txt.gz
Wind_Speed
30 31 31 32 32 33 33 33 34 33 33 33 33 31 29 29 30 32 34 33 34 34 32 31 30 28 26 25 23 22 20 19 19 18 18 17 17 18 18 19 19 18 17
30 30 28 28 28 28 27 27 28 29 30 30 29 28 28 27 24 24 27 30 33 35 35 35 32 32 31 29 27 26 25 23 22 22 21 21 20 20 20 20 20 20 20
29 28 26 26 25 25 25 26 27 27 28 29 29 29 29 28 27 27 27 27 28 31 34 35 35 32 33 31 30 29 28 27 27 25 25 24 24 24 24 23 22 22 22
28 26 25 24 24 24 24 25 26 25 26 28 29 29 30 29 29 28 28 28 27 27 28 31 32 31 31 31 32 31 30 30 30 29 29 28 27 27 27 27 26 24 23
26 24 24 23 22 22 21 21 22 22 24 26 27 28 29 30 29 28 28 28 29 28 29 29 29 30 29 30 30 31 32 32 32 32 31 31 30 30 30 30 30 29 27
24 23 23 20 19 18 18 18 19 20 22 24 26 27 29 30 30 29 29 28 28 29 29 30 30 30 30 29 29 30 32 32 33 34 34 34 33 33 32 33 33 33 31
23 21 20 18 17 16 17 17 18 19 21 23 24 26 27 29 30 31 30 29 29 28 29 29 29 29 30 31 31 32 33 33 34 35 36 36 36 35 34 34 35 36 35
21 19 17 17 17 17 18 19 19 20 21 23 24 25 26 28 29 30 31 30 29 29 28 29 28 29 30 32 32 33 33 34 34 35 36 37 38 37 36 35 35 36 37
20 19 19 19 20 20 20 21 20 20 21 23 25 26 26 26 28 29 30 31 30 30 29 29 28 28 28 30 31 31 32 33 34 35 36 36 37 37 37 36 36 36 37
23 22 22 23 23 23 23 22 21 21 21 22 24 26 27 27 27 26 28 30 30 30 30 30 29 28 27 28 29 30 30 31 33 34 35 35 36 36 36 36 36 36 37
26 26 27 27 27 26 25 24 23 22 22 23 24 26 26 27 27 26 25 28 30 30 30 30 30 30 28 27 28 28 29 29 31 32 34 35 35 35 35 35 35 35 36
30 30 30 31 30 29 27 26 25 25 25 25 26 26 26 26 26 26 24 25 28 30 30 30 31 30 29 28 26 26 27 27 28 30 32 34 35 35 35 35 35 35 35
33 33 33 33 33 31 29 28 27 27 27 27 27 27 26 26 25 25 24 24 26 28 30 30 30 30 28 27 26 26 26 26 26 28 29 31 33 34 34 34 34 35 35
36 36 35 35 34 33 32 31 30 30 29 29 28 27 26 26 25 24 24 24 24 26 28 28 29 29 28 27 27 26 25 25 26 27 28 29 30 31 31 31 31 32 33
39 40 39 37 36 36 35 34 33 31 31 30 29 28 26 25 24 24 23 23 23 23 26 27 27 28 29 28 28 27 26 26 27 28 28 28 29 29 29 29 28 29 30
44 44 43 41 40 39 38 37 35 33 32 32 31 29 27 25 24 23 22 22 22 22 24 25 26 28 29 29 29 28 27 27 28 28 28 28 28 28 27 27 27 27 26
51 49 47 45 44 42 41 40 38 36 34 33 31 29 27 25 24 23 22 21 21 20 21 23 25 27 28 29 29 28 28 29 28 28 27 26 26 26 25 25 25 24 24
58 55 52 50 47 45 44 43 41 39 36 34 32 30 28 26 24 23 21 20 20 20 20 21 24 26 27 28 28 29 29 28 28 27 26 25 24 23 23 23 22 22 22
64 62 59 56 52 49 47 46 44 42 39 37 35 32 30 28 25 23 21 20 19 19 19 20 23 25 26 26 27 27 26 26 25 25 25 24 22 21 21 20 21 21 22
67 65 64 61 57 54 52 49 47 45 42 40 37 35 32 29 26 23 21 20 19 19 19 19 21 23 24 24 25 26 25 24 24 23 24 23 22 22 21 20 20 20 20
73 71 68 65 63 60 57 54 51 48 45 42 40 37 34 30 27 24 21 19 18 18 18 19 20 22 23 24 24 25 25 26 24 23 22 22 20 19 19 19 18 18 18
80 78 75 72 69 65 62 59 55 52 49 45 42 39 35 31 27 24 21 20 19 18 19 18 19 20 22 23 23 23 24 25 24 22 20 19 18 17 16 16 15 14 13
73 77 79 78 75 71 66 62 57 55 52 48 44 41 36 32 28 25 22 21 20 18 18 18 19 21 22 24 24 24 24 24 23 20 18 17 17 16 14 13 13 12 11
54 62 69 74 76 75 70 65 60 57 52 49 46 43 38 33 29 26 24 22 21 19 18 18 19 21 22 22 22 23 23 23 22 20 18 16 15 14 13 12 12 11 11
40 45 51 59 65 69 71 68 62 57 51 49 46 43 39 34 30 27 25 23 22 21 20 19 20 20 21 23 23 23 23 22 20 18 17 15 14 13 12 12 11 10 10
37 36 39 44 51 56 61 64 63 56 51 49 44 41 38 34 31 29 27 25 23 22 20 19 19 20 21 22 22 21 21 20 18 16 15 14 13 13 11 11 10 9 8

GEFSMA_500_meanwind_030.txt.gz
Wind_Speed
24 24 23 24 24 24 25 25 25 26 27 25 24 24 23 23 23 23 22 23 23 24 26 27 28 29 27 25 23 22 21 20 19 18 17 17 16 15 16 16 15 14 14
25 24 23 23 24 24 24 24 24 23 22 21 20 20 20 20 20 21 21 21 22 23 24 25 27 29 30 29 28 27 26 24 23 22 21 20 19 18 17 17 17 16 15
24 23 22 22 22 23 23 23 23 22 20 19 19 19 18 18 19 19 20 21 21 22 24 24 26 28 29 31 31 31 31 29 27 27 26 24 23 22 21 20 19 18 17
24 22 22 22 22 22 22 22 21 20 18 17 16 16 16 17 18 18 19 20 21 22 24 26 26 27 28 30 32 32 33 33 31 30 30 29 27 25 24 23 22 21 20
24 22 22 21 21 21 21 20 19 18 17 16 15 15 14 15 16 17 18 20 21 22 24 26 27 28 28 29 30 32 33 33 33 32 32 32 30 29 27 26 25 25 24
24 23 22 21 21 20 20 19 18 17 16 15 14 13 13 13 14 16 17 19 21 22 24 26 27 28 29 30 30 32 32 32 33 33 33 34 33 31 30 29 28 27 26
23 23 22 22 21 20 19 18 18 17 16 15 14 13 13 13 13 15 17 18 20 22 24 25 27 29 30 30 30 31 32 34 34 34 34 35 35 33 32 32 31 29 29
23 23 23 23 22 21 20 19 19 18 18 17 15 15 14 14 13 15 16 18 20 22 24 26 27 29 31 31 30 31 32 34 34 35 35 35 34 33 33 33 32 31 30
23 23 23 23 23 22 21 21 20 20 20 19 17 16 15 15 15 17 17 18 20 22 23 25 27 29 31 31 31 31 31 32 34 34 35 34 34 33 33 33 33 32 32
23 23 24 24 24 24 24 23 23 23 22 22 20 18 17 16 16 19 20 19 20 21 23 24 25 27 29 31 32 32 31 31 32 33 35 34 32 32 33 33 33 33 33
24 25 26 26 27 27 27 27 26 25 24 24 23 21 20 18 17 17 20 21 21 21 22 23 24 26 28 31 32 32 30 29 29 29 31 32 31 31 32 33 33 33 33
27 27 27 28 29 30 31 30 29 28 27 26 25 24 22 21 20 18 19 22 22 22 21 21 22 24 26 28 30 31 28 26 26 26 27 27 28 29 29 31 32 33 33
31 31 30 31 31 33 34 34 32 31 30 29 27 26 25 23 22 21 21 21 22 23 22 21 20 21 24 26 27 28 26 25 23 22 23 23 23 26 27 28 29 31 32
39 37 35 35 35 35 36 36 36 34 33 32 31 29 28 26 25 24 23 22 21 22 23 22 20 20 22 24 25 26 25 23 22 21 21 21 22 24 25 26 28 29 30
47 45 43 42 40 40 39 40 39 39 37 36 34 33 31 29 27 26 25 23 22 21 23 22 20 20 21 23 23 24 24 23 23 23 23 23 23 24 25 26 26 27 28
53 52 51 50 48 46 44 43 43 42 41 39 38 36 34 32 30 29 27 26 23 21 21 22 21 20 21 22 23 24 24 25 25 25 25 24 25 25 25 26 26 26 27
58 58 57 56 55 54 51 50 47 45 44 43 42 40 38 35 33 31 29 28 25 23 21 22 21 21 20 21 23 24 25 26 26 26 25 25 26 25 26 26 26 25 25
63 62 62 62 61 60 59 57 54 51 49 47 45 43 41 39 36 34 32 30 27 24 22 22 22 21 21 21 22 24 25 26 26 26 26 26 26 26 25 25 25 24 25
66 67 67 66 65 65 63 61 59 56 54 51 49 46 44 41 38 36 34 32 29 26 23 23 23 21 21 20 21 23 24 25 25 25 26 26 25 25 25 24 24 23 23
59 64 68 70 70 70 68 65 63 60 57 55 52 49 47 44 41 39 36 34 32 29 25 24 23 21 20 20 21 22 23 24 23 23 23 23 22 22 23 22 22 23 23
45 52 59 65 69 71 72 70 67 64 60 57 55 52 49 46 43 40 38 36 33 30 27 25 23 22 20 20 20 20 21 21 21 21 22 21 21 20 21 21 21 22 22
39 40 44 50 58 64 69 72 71 68 64 60 57 54 51 48 45 42 40 37 35 31 28 25 24 22 21 20 19 19 20 20 20 21 21 21 21 20 20 21 21 22 22
39 38 37 39 43 50 58 64 69 70 67 63 59 56 52 49 46 44 42 39 36 33 29 26 24 22 20 19 18 19 19 19 19 19 19 20 21 21 20 20 20 20 20
42 41 39 37 36 38 42 49 57 63 65 65 62 58 54 51 48 45 43 40 37 34 30 27 24 22 21 20 19 19 19 19 19 18 18 19 19 20 21 20 20 19 19
43 42 40 38 36 34 34 37 42 49 56 60 62 61 57 52 49 46 44 41 38 34 31 28 26 23 21 20 19 19 19 19 19 18 18 18 18 19 20 20 20 19 18
41 41 39 38 36 34 33 33 35 39 45 52 57 59 58 54 50 47 44 41 38 35 31 29 26 24 21 19 19 19 19 19 19 18 18 18 19 20 20 20 19 19 18

GEFSMA_500_meanwind_036.txt.gz
Wind_Speed
28 28 27 27 27 26 26 27 27 26 25 25 24 23 22 21 21 20 21 21 21 20 21 22 23 24 26 26 26 25 24 22 21 20 19 18 18 17 16 16 16 15 14
31 29 28 27 27 27 27 27 27 27 26 25 25 23 22 21 21 21 20 19 19 19 20 20 21 23 25 26 27 28 27 26 25 23 22 21 20 19 18 17 17 17 16
33 31 29 28 27 27 27 27 27 27 27 25 25 24 22 21 20 21 19 18 18 18 19 21 21 22 23 26 27 29 30 30 29 28 26 25 24 23 21 20 19 18 18
34 31 29 28 27 26 26 27 27 27 26 25 24 23 21 20 19 18 17 16 17 17 18 19 20 22 23 24 26 29 30 31 32 31 30 29 28 27 25 24 22 21 20
32 30 30 29 26 25 25 26 26 26 25 25 24 23 22 20 19 17 16 15 15 16 16 17 19 20 21 23 25 26 30 32 33 33 33 33 32 30 29 27 26 25 23
31 30 29 28 27 25 25 25 25 24 24 24 24 23 22 21 19 17 16 15 14 14 15 16 17 19 20 22 24 26 28 31 32 32 33 34 35 35 33 32 30 28 27
31 30 30 29 28 26 25 25 24 24 24 24 24 23 22 21 19 18 16 14 14 14 14 15 16 17 19 21 23 25 27 29 31 32 33 34 36 37 37 36 33 32 30
30 30 29 29 28 27 27 26 25 25 24 24 24 23 22 22 20 19 17 16 14 14 14 14 15 17 18 20 22 25 26 29 31 32 33 34 37 37 37 36 35 34 33
26 28 29 29 28 28 28 28 27 26 26 25 25 24 23 23 22 21 19 17 16 15 15 15 16 17 18 20 22 25 27 29 31 31 33 33 35 37 37 36 36 36 34
28 28 29 29 29 29 29 29 29 28 28 27 26 26 25 25 23 22 21 19 18 17 16 16 16 17 18 20 22 24 26 29 31 31 32 32 32 33 34 36 36 36 35
30 32 32 31 31 31 31 31 31 31 31 30 29 28 27 26 26 25 23 22 20 19 18 18 18 18 18 19 21 23 25 27 29 31 32 32 32 30 31 33 34 36 36
35 35 36 35 34 33 33 33 33 34 33 33 32 31 30 28 28 27 26 24 23 21 20 20 19 19 19 19 20 22 24 26 28 29 30 31 32 31 31 32 33 34 36
41 41 40 39 39 37 36 36 35 36 36 36 36 34 33 31 30 29 28 27 25 24 22 21 21 20 20 19 19 20 22 24 25 27 28 29 30 30 29 29 30 32 33
47 47 46 45 44 43 42 40 39 38 38 39 39 38 37 35 33 31 30 29 28 27 25 23 22 21 21 20 19 19 20 21 22 25 26 27 27 27 28 28 28 30 31
53 53 53 52 51 49 48 46 45 43 42 42 42 42 41 39 36 35 33 32 30 28 27 25 23 22 21 20 19 18 18 20 20 21 23 24 25 25 26 26 26 27 28
55 58 59 58 57 56 54 53 51 49 48 46 45 44 44 43 41 38 36 35 33 31 29 27 25 23 22 21 20 19 18 18 19 20 21 22 23 23 24 23 24 25 25
53 57 61 63 64 63 61 60 58 56 54 51 49 48 47 46 44 42 40 38 35 33 31 29 27 25 23 22 21 19 18 18 19 20 21 22 23 24 25 25 25 25 25
51 53 57 62 65 67 67 66 64 62 60 57 55 53 51 50 48 46 43 41 38 36 34 31 29 27 25 23 21 20 19 18 19 21 22 23 24 25 26 26 26 26 26
49 51 53 56 61 65 68 69 69 67 65 63 60 58 55 54 52 49 47 45 42 39 36 34 31 28 26 24 22 20 19 19 20 21 23 24 26 26 27 27 26 26 26
49 49 51 53 55 59 63 67 70 71 70 68 65 62 59 56 54 52 51 48 45 42 39 36 33 31 28 26 24 21 20 20 20 21 23 24 25 26 27 27 28 27 27
52 50 50 51 52 53 55 59 64 69 71 71 69 66 63 60 56 54 53 51 48 45 42 39 35 32 29 27 24 22 20 20 20 21 23 24 25 26 27 27 27 27 27
52 51 49 49 49 49 49 50 54 60 66 70 71 69 66 64 60 57 55 53 50 47 43 40 37 33 31 28 25 23 21 20 20 20 21 22 24 25 26 26 26 26 26
49 49 48 48 47 48 47 46 46 49 54 62 68 68 67 67 64 57 55 54 52 49 46 42 38 35 33 30 27 24 22 21 21 21 21 22 23 23 24 25 25 24 24
44 46 47 47 46 46 46 45 44 43 45 49 57 63 65 65 65 63 58 54 52 49 46 44 40 37 34 31 28 25 23 21 21 21 22 21 22 23 24 24 23 24 23
39 42 43 45 45 45 45 45 44 42 41 42 46 52 58 61 61 61 58 55 52 50 47 44 41 38 36 33 29 26 23 21 20 21 21 21 21 22 23 23 23 23 23
35 37 39 41 42 44 44 44 43 41 39 39 40 44 49 55 58 58 57 55 53 51 49 45 42 39 36 33 30 27 25 23 21 21 21 21 21 22 22 22 22 22 22

GEFSMA_500_meanwind_042.txt.gz
Wind_Speed
39 39 39 41 40 39 38 36 35 33 31 29 27 25 24 23 22 22 22 21 21 23 24 24 26 25 25 26 25 26 25 25 24 23 22 21 20 19 19 18 17 16 14
39 39 40 41 42 41 40 38 37 35 32 31 28 26 24 24 24 23 22 21 21 22 23 24 25 25 25 25 26 27 27 26 26 25 24 23 22 21 20 19 19 18 17
39 40 42 42 43 43 41 40 38 37 35 32 30 28 26 24 24 23 23 21 21 21 22 23 24 24 24 24 25 26 27 26 26 26 26 26 25 23 22 21 21 20 19
37 40 42 42 43 43 42 41 39 38 35 33 31 29 28 26 25 25 23 22 21 20 21 22 22 22 23 23 23 23 24 26 26 27 28 29 28 26 25 24 22 21 20
34 37 39 40 41 42 42 41 40 38 36 34 32 30 29 27 26 26 24 23 21 20 20 20 21 21 21 21 22 22 23 24 24 26 28 29 30 29 28 27 26 24 23
34 35 37 38 40 41 41 40 40 38 36 34 33 31 30 28 27 26 25 24 21 20 19 19 20 20 20 20 21 22 22 22 23 24 25 27 30 30 30 29 29 28 26
34 34 35 36 38 39 39 38 38 37 35 34 33 31 30 29 28 26 26 25 23 21 20 19 19 18 18 19 19 20 20 21 22 23 24 25 27 29 30 30 31 31 30
34 32 32 34 35 37 38 39 37 37 35 34 34 33 30 29 28 28 27 26 24 22 21 19 18 17 16 16 16 17 18 19 20 22 24 25 25 27 29 30 29 31 32
36 33 32 32 34 36 37 37 38 36 35 35 34 33 31 30 29 29 28 27 25 24 22 20 18 16 15 15 14 15 15 17 19 20 22 24 25 26 27 29 30 30 31
38 36 34 33 33 35 36 38 38 36 35 35 35 33 33 31 30 30 29 28 27 25 24 22 20 17 16 15 14 14 14 15 17 19 21 23 25 27 28 28 30 30 31
41 39 38 36 34 34 36 37 37 36 36 36 35 34 34 33 33 31 31 30 29 28 26 24 22 19 17 15 15 14 14 15 17 18 20 22 24 26 27 28 30 30 30
44 43 42 41 40 39 38 39 39 37 37 37 37 36 36 36 35 34 33 32 31 30 28 26 24 21 18 16 15 14 14 15 16 18 20 22 24 26 28 29 29 30 31
47 47 46 46 45 44 43 43 42 41 41 40 39 39 39 39 38 37 36 35 33 32 30 29 26 23 20 18 16 15 15 15 16 18 20 22 23 25 27 29 29 29 30
47 47 49 49 49 49 49 48 47 46 45 44 42 42 42 41 41 40 39 37 36 34 33 31 28 26 23 21 19 17 16 16 17 17 19 20 23 24 26 27 28 29 29
46 47 48 49 51 52 53 54 53 52 50 49 47 45 45 44 44 43 43 41 39 37 35 33 31 28 26 23 21 19 17 17 17 17 18 19 21 22 24 26 27 27 28
47 48 49 51 52 53 54 57 57 57 55 53 51 50 48 47 47 46 45 44 42 40 37 35 33 31 28 25 22 20 18 17 17 18 18 18 19 21 23 24 26 26 26
50 51 51 51 53 56 58 58 59 61 61 59 56 55 53 51 49 49 48 47 45 43 41 38 36 33 30 27 24 22 19 18 18 18 18 18 19 19 20 22 23 24 25
54 54 55 55 55 57 59 61 62 64 65 65 62 60 58 54 53 51 50 49 48 46 44 42 39 36 33 30 27 24 21 19 18 18 18 18 18 19 19 20 20 22 23
57 58 58 59 59 59 60 61 64 66 67 68 67 66 63 60 56 54 53 51 50 49 47 45 42 39 37 33 30 27 24 22 20 19 18 18 18 19 20 20 20 21 21
57 58 59 59 60 61 61 62 64 67 68 69 70 69 69 66 63 59 56 54 53 52 50 48 46 42 39 36 33 29 27 25 22 21 20 19 19 20 21 21 21 21 21
56 55 56 58 59 61 62 63 64 66 68 68 70 71 71 71 70 65 60 57 55 53 52 50 49 46 42 39 36 33 29 27 25 22 21 20 20 20 21 22 22 22 22
50 51 51 53 56 58 61 62 63 65 66 66 67 69 72 73 72 71 67 62 58 55 53 52 51 48 45 42 39 36 32 29 26 24 22 21 21 21 21 22 22 22 22
45 44 45 47 49 52 55 58 61 63 63 63 64 65 68 71 73 73 70 67 62 58 56 54 52 51 48 45 42 39 36 32 29 26 24 22 21 21 21 21 21 22 22
38 37 38 39 42 45 49 54 57 59 59 59 59 60 61 65 69 72 72 70 66 63 59 56 54 51 50 48 46 43 39 35 31 28 25 23 23 22 21 20 20 21 21
32 30 29 31 34 37 41 47 51 54 54 54 55 55 55 57 61 67 71 70 68 65 62 59 56 53 52 50 47 44 40 37 33 29 27 25 24 23 22 21 21 21 20
28 24 22 23 26 30 34 40 44 47 49 49 50 50 50 52 54 58 64 68 69 66 61 60 58 55 52 50 48 45 42 39 36 32 28 26 25 24 23 22 21 21 20

GEFSMA_500_meanwind_048.txt.gz
Wind_Speed
36 36 35 36 36 35 36 37 37 36 34 34 34 32 31 31 29 29 28 27 26 26 25 24 23 24 25 25 24 22 22 21 21 21 21 21 20 19 17 16 14 13 11
38 37 35 36 37 37 38 37 39 38 36 35 34 33 32 32 30 28 28 27 27 26 24 23 24 24 24 25 25 24 23 23 23 22 22 22 23 22 20 18 17 15 14
39 38 37 36 36 37 39 39 38 38 36 35 34 35 34 33 31 30 29 28 28 27 25 24 24 23 23 23 24 24 23 23 23 23 22 23 24 24 23 21 19 18 16
40 39 37 37 37 36 37 38 39 38 37 37 36 36 36 34 33 31 30 29 28 27 25 24 24 23 23 22 22 23 22 22 22 22 22 23 25 25 25 24 22 20 19
40 39 39 38 38 36 36 37 37 38 38 38 37 36 36 34 33 32 31 31 29 28 25 24 24 23 22 21 21 22 22 21 21 20 21 22 24 25 26 26 25 23 22
41 41 40 40 39 37 36 36 36 36 36 37 37 36 35 34 33 32 31 31 30 29 26 24 23 22 21 21 20 20 20 20 19 19 20 21 23 25 26 26 27 26 25
42 42 41 40 40 38 38 37 36 35 35 35 36 35 35 35 33 33 32 31 30 29 28 26 23 23 22 21 20 19 19 19 19 18 18 19 20 23 24 25 27 27 27
43 43 42 42 42 41 39 36 36 36 35 35 34 36 37 35 33 33 32 31 30 29 28 27 25 24 22 21 19 19 18 18 17 17 17 17 17 18 20 21 24 27 27
43 44 44 43 43 42 41 39 37 36 35 35 36 37 36 35 33 32 32 31 30 29 29 28 26 25 23 21 19 18 17 16 15 15 15 16 17 18 18 19 20 23 26
43 43 44 44 43 43 42 40 39 38 36 35 36 37 37 36 35 33 33 32 31 31 31 29 27 26 24 22 20 18 17 16 15 15 15 15 15 16 17 18 19 21 23
44 44 44 44 43 43 41 40 39 38 38 37 36 37 38 37 36 35 33 32 33 33 31 30 28 27 25 23 21 20 18 17 15 14 14 13 14 14 15 17 18 19 21
44 43 42 42 42 42 41 41 40 40 39 38 37 37 37 37 37 37 35 34 34 34 33 32 30 29 28 26 23 21 20 18 16 15 14 13 12 13 14 15 17 19 21
43 43 42 41 41 41 41 41 41 41 42 41 40 39 38 38 39 40 38 37 36 36 35 34 32 31 30 28 26 24 21 19 17 15 14 12 12 12 13 14 16 18 20
43 43 44 43 42 42 42 42 42 42 43 44 43 42 40 39 39 40 40 39 38 38 37 36 35 34 32 30 29 26 24 21 19 16 15 13 12 12 13 14 16 18 20
44 44 45 45 44 44 44 44 44 43 44 45 45 45 44 43 40 40 41 41 40 39 39 38 37 37 35 33 32 29 26 23 20 18 16 14 13 13 12 13 15 17 18
45 46 47 48 48 49 48 48 48 47 47 46 46 47 47 48 45 43 42 42 42 42 41 41 39 39 37 36 34 32 29 26 23 20 17 16 14 13 13 13 14 15 16
46 47 48 50 51 52 53 52 52 51 51 50 48 48 50 50 49 47 45 44 44 44 43 43 41 41 40 38 36 34 32 29 25 22 19 17 15 14 13 13 14 14 16
46 47 49 51 53 55 55 56 55 55 55 55 53 52 52 52 51 50 48 47 46 45 45 44 43 43 42 41 39 37 35 32 28 25 21 18 16 14 13 13 13 14 15
47 48 49 50 52 54 56 57 57 58 58 57 57 57 56 55 54 53 51 50 48 47 46 46 45 45 44 43 42 40 37 34 31 27 23 20 17 15 13 13 13 13 14
48 48 48 49 51 52 54 56 57 57 58 59 59 59 59 59 57 57 54 53 52 49 48 49 48 47 47 46 44 41 39 37 34 30 26 22 18 16 14 13 13 13 13
47 47 48 48 48 49 50 51 53 54 55 56 58 58 60 61 60 60 58 56 55 53 51 50 49 48 48 47 45 43 41 39 37 33 29 25 21 18 15 14 13 13 14
46 46 46 45 44 44 44 45 47 49 50 52 55 57 58 60 61 63 61 59 59 57 54 52 50 49 49 48 48 46 44 42 39 36 32 28 24 20 17 15 14 14 14
44 44 44 42 40 40 41 41 43 45 47 49 52 54 55 58 60 62 63 62 62 60 57 55 52 48 48 49 49 48 47 44 42 38 35 30 26 24 20 17 15 15 15
42 42 41 39 37 37 36 37 39 41 43 45 48 52 53 55 57 60 62 63 63 62 59 56 54 52 50 49 49 50 49 47 44 41 37 33 29 26 23 19 17 16 16
40 40 38 36 34 32 30 30 31 34 36 39 43 47 50 52 53 55 58 61 62 63 62 58 56 54 51 50 49 50 49 47 44 42 39 35 32 29 25 22 20 18 17
39 37 36 33 31 28 25 23 24 26 28 32 37 41 45 47 49 51 53 57 59 60 61 60 57 56 53 51 49 49 48 47 45 43 41 38 35 31 28 25 23 20 18

GEFSMA_500_meanwind_054.txt.gz
Wind_Speed
34 34 34 33 33 32 31 31 30 30 29 28 28 28 29 30 31 32 31 29 27 27 26 25 24 23 22 22 22 21 20 19 18 18 17 17 17 16 16 15 14 13 12
36 36 36 35 34 33 33 33 32 31 30 29 29 28 29 31 32 33 33 31 29 28 27 27 26 25 24 24 23 23 23 22 20 20 19 19 19 18 18 17 16 15 14
37 37 35 35 35 34 35 34 33 33 32 31 30 31 29 29 31 32 33 32 31 30 28 28 28 27 25 25 24 24 23 23 22 22 21 21 21 20 20 20 19 18 17
38 38 36 35 35 36 36 35 34 34 33 32 31 31 30 30 29 31 31 31 32 31 30 29 29 28 27 26 25 25 25 24 24 23 23 23 23 23 22 22 22 21 20
39 38 37 37 37 36 36 36 35 35 34 33 32 31 30 29 29 30 31 31 31 31 31 31 30 29 28 27 25 26 26 25 25 24 25 25 25 25 24 24 24 24 22
40 39 39 39 39 38 38 37 36 36 35 35 33 32 31 30 29 30 31 33 31 32 32 31 31 31 29 28 27 27 26 26 26 25 25 25 26 26 26 26 26 26 25
39 39 39 39 39 38 38 37 37 37 37 35 34 33 32 32 30 30 31 33 32 32 32 33 32 32 32 30 28 28 27 27 27 26 26 26 26 26 26 27 27 27 27
38 38 38 38 39 38 38 38 37 37 37 37 36 34 32 31 30 30 31 32 32 33 33 32 33 33 33 32 30 29 28 28 27 27 27 26 26 26 26 26 27 27 28
37 37 37 37 37 37 37 38 38 37 37 37 36 34 32 31 29 29 30 32 32 33 34 34 34 34 35 34 32 30 29 28 28 27 27 27 26 26 26 27 27 28 28
37 36 36 36 36 36 36 37 37 37 37 37 36 36 34 33 31 30 31 32 33 33 34 34 34 34 34 35 33 32 30 29 28 28 28 27 26 26 25 26 25 26 27
37 36 35 34 34 34 35 35 35 35 35 35 35 36 35 35 33 32 31 32 33 33 35 35 35 35 35 35 35 33 32 31 29 29 28 28 27 26 25 24 24 25 25
38 37 36 35 35 34 34 35 34 34 34 34 34 35 35 35 34 34 33 33 33 33 35 36 37 36 36 37 36 35 33 32 31 30 29 28 27 26 25 24 24 24 23
39 39 38 37 37 36 35 35 35 35 34 34 34 35 35 35 36 35 34 33 34 34 34 36 37 38 37 37 37 37 36 34 32 31 30 29 27 26 25 24 23 23 23
39 39 39 39 39 37 36 36 35 36 35 35 35 36 36 36 37 37 36 35 35 35 35 35 36 38 38 38 38 38 37 36 34 33 31 30 28 26 25 24 23 22 21
40 40 40 40 40 39 38 37 37 37 37 36 36 36 37 37 37 38 38 38 37 36 36 36 37 38 39 40 40 40 39 38 36 35 33 30 28 26 25 23 22 21 20
40 40 40 40 40 40 40 40 39 39 39 39 39 38 39 39 39 39 40 40 40 38 37 38 38 39 41 42 42 42 41 40 38 36 34 31 29 27 25 23 22 20 20
39 40 40 40 40 40 41 41 41 41 41 41 41 41 41 41 41 41 41 41 41 41 40 38 39 40 42 44 44 43 42 41 40 38 36 33 31 28 25 23 21 20 19
40 40 39 40 41 41 42 43 43 43 43 43 43 43 43 43 44 43 43 43 44 44 41 40 40 41 43 45 45 45 44 44 42 40 38 35 32 29 26 24 22 20 19
39 40 40 41 41 41 42 43 44 44 44 44 45 46 46 46 47 47 46 46 46 46 45 43 42 43 44 46 47 47 47 46 45 42 40 37 34 31 28 24 22 21 19
39 40 40 40 41 41 42 43 44 45 45 45 46 47 48 49 49 50 50 50 50 49 48 47 44 44 45 47 48 48 49 48 47 45 42 39 36 33 29 26 23 21 20
40 39 39 39 39 39 40 41 43 44 45 46 47 48 49 50 51 52 53 54 54 53 51 50 48 47 46 48 48 49 50 50 49 47 44 41 38 35 32 28 25 23 21
39 39 38 37 37 38 40 41 43 43 44 45 46 47 48 50 51 53 55 57 58 57 55 53 52 50 48 48 50 50 52 51 50 49 46 44 41 37 34 30 27 24 21
38 37 37 37 38 39 40 40 40 40 40 41 43 44 46 49 51 53 56 58 60 60 59 57 55 52 50 50 51 52 52 52 51 50 49 46 43 40 36 32 29 25 23
37 37 37 37 37 37 37 37 37 37 36 37 38 40 43 46 49 52 55 59 60 61 61 60 58 56 53 51 50 51 53 53 53 53 52 49 46 42 39 35 31 28 24
37 37 37 37 36 35 35 35 35 34 33 33 35 37 40 43 46 50 54 57 60 62 63 63 61 60 57 54 52 53 54 55 55 53 51 49 47 44 41 37 34 30 27
37 37 37 36 35 33 32 32 32 31 29 29 31 34 37 40 44 47 52 56 58 60 63 63 63 61 59 56 54 53 52 53 54 53 51 50 48 46 43 40 36 33 29

GEFSMA_500_meanwind_060.txt.gz
Wind_Speed
28 29 30 30 31 32 32 31 32 31 31 30 30 28 27 26 25 24 27 28 28 29 28 28 27 25 25 24 23 22 21 20 19 18 18 17 16 15 15 14 13 12 10
29 30 30 31 33 33 32 32 32 32 31 30 30 30 28 27 25 25 25 27 28 30 30 30 30 28 27 26 26 25 24 23 22 21 20 20 19 18 17 16 15 14 13
30 31 32 32 33 33 33 33 32 31 31 31 31 30 30 29 27 26 26 27 27 30 31 32 32 31 30 29 28 27 26 26 25 24 23 22 21 20 19 18 17 16 15
31 32 32 33 33 34 34 34 33 32 32 32 31 31 31 30 29 28 28 28 28 29 31 32 33 34 32 31 30 29 28 27 26 26 25 25 24 23 22 20 19 19 18
32 33 33 33 33 34 34 34 34 33 33 33 32 32 31 31 30 29 29 29 28 28 30 32 33 35 34 33 32 31 31 29 28 28 27 27 26 25 23 23 22 21 21
33 34 34 34 34 34 34 34 34 34 34 34 33 33 32 31 31 31 31 30 29 29 30 32 33 35 36 35 34 33 32 31 30 29 29 28 28 27 26 25 24 23 23
34 34 34 34 34 34 34 34 34 34 35 34 34 33 33 32 32 32 32 31 30 30 31 32 34 35 36 37 36 35 34 33 32 31 30 29 29 29 28 27 26 25 25
33 33 33 34 34 34 34 34 34 35 35 35 34 34 33 33 34 33 33 33 32 31 31 32 34 35 36 38 38 37 36 35 34 33 31 31 30 30 29 29 28 28 27
32 32 32 33 33 33 34 34 34 34 35 35 35 34 34 34 34 35 34 34 34 32 32 33 34 36 36 38 39 38 37 36 35 34 33 33 32 31 30 30 29 28 28
32 32 33 33 33 34 34 34 34 34 34 35 35 35 35 34 35 35 35 35 35 34 34 34 35 37 38 38 39 39 38 37 36 35 35 34 34 32 31 30 30 29 28
32 32 32 33 33 34 34 35 34 34 35 35 36 36 35 35 35 35 35 35 35 35 35 35 35 37 39 39 39 39 39 39 39 37 36 35 34 33 32 30 29 29 29
33 33 33 33 33 34 34 35 35 35 35 35 36 36 36 35 35 35 35 36 37 36 36 36 36 38 39 39 39 40 40 41 40 39 38 36 35 34 33 31 30 30 29
33 34 34 34 34 34 35 35 35 36 36 36 36 36 37 36 36 36 35 36 37 37 37 37 38 39 40 41 40 41 41 42 41 40 39 38 36 35 34 32 30 30 28
33 34 35 35 35 36 35 35 36 36 36 37 37 37 37 38 38 37 37 37 37 38 38 38 39 39 40 42 41 42 43 42 42 41 40 39 37 36 34 32 31 30 28
35 35 35 35 36 36 36 36 36 36 37 37 38 38 39 39 39 39 38 38 38 39 39 39 39 40 40 41 42 43 44 44 43 42 41 40 38 37 35 34 32 31 29
36 36 36 36 36 36 36 36 36 36 37 38 38 39 40 40 40 40 40 40 40 40 40 41 40 41 41 40 42 43 44 44 44 43 42 41 39 38 36 34 33 31 29
38 37 37 37 37 37 37 37 37 37 37 38 39 39 39 40 41 41 42 42 41 41 40 41 42 42 42 42 43 44 45 45 44 43 43 42 40 39 37 35 33 31 30
39 39 38 37 37 37 37 37 37 37 37 38 39 39 40 41 42 42 42 43 43 43 42 42 43 43 44 43 44 45 46 46 45 45 44 43 41 40 38 37 34 32 30
40 40 38 37 37 36 37 37 37 36 37 37 38 39 40 41 42 43 44 44 45 45 44 43 44 44 44 45 45 45 47 48 47 46 45 45 44 41 40 38 35 33 31
41 40 39 38 37 37 37 36 36 36 36 37 38 39 40 41 42 44 45 45 46 47 47 46 46 46 46 46 45 46 47 48 48 48 47 46 45 43 41 39 37 35 32
41 40 39 39 38 37 37 36 36 37 37 37 37 38 40 41 42 44 45 46 47 48 48 48 49 49 48 47 47 46 47 49 50 50 50 48 46 44 43 41 38 36 33
42 41 40 39 38 38 37 37 37 37 37 37 38 39 40 41 42 44 45 47 48 49 49 49 50 51 49 51 49 46 47 48 50 51 51 50 48 46 44 42 40 38 35
43 42 41 40 39 38 38 38 37 37 36 37 37 38 39 40 41 43 45 47 49 51 52 52 51 52 51 52 52 49 47 47 50 52 53 52 51 48 46 44 42 39 36
43 42 41 40 39 39 38 37 37 36 36 36 37 38 38 39 40 42 44 46 49 52 53 54 53 54 55 53 53 51 49 48 50 52 54 53 52 50 48 46 43 41 38
43 42 41 40 39 39 38 37 36 35 35 35 36 37 37 38 39 41 43 45 48 51 54 55 56 56 57 57 55 53 52 51 50 51 53 54 53 51 50 48 45 42 39
43 42 41 41 40 38 37 36 36 35 34 33 34 34 35 36 37 39 42 44 46 50 54 56 57 57 58 59 56 55 54 53 51 50 52 54 55 53 51 49 47 44 41

GEFSMA_500_meanwind_066.txt.gz
Wind_Speed
25 24 25 26 26 26 25 25 26 25 25 25 25 25 23 22 22 22 21 22 24 25 27 28 29 29 29 28 27 25 24 23 22 21 20 19 18 17 16 15 13 11 10
23 25 24 26 27 27 27 27 27 27 27 26 25 25 24 24 23 24 24 23 24 26 27 29 31 31 31 31 30 29 27 26 25 24 23 22 20 19 18 17 15 14 12
24 25 25 25 26 27 26 27 27 27 27 27 27 26 26 25 25 26 26 25 25 27 28 29 31 32 33 34 33 32 31 29 28 26 25 24 23 22 20 19 17 16 14
23 24 24 24 25 26 26 27 28 28 29 28 28 28 28 27 27 27 27 27 26 27 29 30 31 32 34 35 35 34 33 33 31 30 28 27 26 24 23 21 20 18 17
23 24 24 25 25 26 26 27 27 28 29 29 29 29 29 29 29 29 29 29 28 28 30 30 31 32 34 36 37 37 36 35 34 33 32 30 29 27 25 24 22 21 19
23 24 25 25 26 26 26 27 28 28 29 29 30 30 31 30 31 31 31 31 30 30 32 33 32 32 34 37 37 37 38 38 37 36 35 33 31 30 28 26 25 23 22
24 24 25 25 26 26 27 27 27 28 29 29 30 30 31 31 32 32 33 33 33 33 33 33 34 34 34 35 37 37 38 39 40 39 37 36 34 33 31 29 28 26 24
24 24 24 25 25 26 27 27 28 28 29 29 30 30 31 32 33 33 34 34 34 34 34 34 34 34 36 37 37 38 39 40 41 40 39 38 37 35 33 32 30 28 27
24 24 24 25 25 26 27 28 28 29 29 30 30 31 32 33 33 34 34 35 35 36 36 35 35 35 37 38 37 39 40 40 42 42 40 40 39 37 35 34 32 30 29
23 23 23 24 25 26 27 28 28 29 30 30 31 31 32 33 34 34 35 36 36 36 37 37 36 36 37 39 39 39 40 41 42 42 41 42 41 39 37 36 34 32 31
22 22 23 24 25 26 27 28 29 29 30 31 31 32 33 33 34 35 36 37 37 37 38 38 39 39 40 40 40 41 41 41 42 43 43 43 43 42 40 37 36 34 32
23 23 24 25 26 27 27 28 29 30 30 31 32 32 33 34 35 36 37 38 38 39 39 39 39 40 41 41 41 41 41 42 43 44 43 44 44 43 42 39 38 35 34
25 25 26 26 27 28 28 29 30 31 32 32 33 34 35 35 36 37 38 38 39 40 40 40 40 41 42 42 42 41 42 43 43 45 45 44 43 43 42 40 39 37 35
26 27 27 28 28 29 30 31 31 32 33 33 34 35 36 37 37 38 39 40 40 40 41 41 41 42 43 43 43 42 43 43 43 45 45 45 44 42 42 42 40 38 37
28 29 29 30 31 31 31 32 32 33 33 34 35 36 37 37 38 39 39 40 41 41 42 42 43 43 43 43 43 44 44 43 43 44 45 45 45 43 43 43 41 39 37
30 30 31 31 32 33 33 33 33 33 34 34 35 36 36 37 38 39 39 40 41 42 42 43 43 44 44 44 44 44 44 44 45 45 46 45 45 44 43 43 42 39 37
31 32 33 34 34 34 34 34 34 34 35 35 35 36 36 37 38 38 39 40 40 41 42 43 44 43 44 45 45 45 45 45 46 46 46 47 46 45 44 43 43 42 39
33 34 35 36 36 36 36 36 36 36 36 36 37 37 37 37 38 39 39 40 41 41 42 43 45 45 44 45 45 45 46 46 45 46 47 47 46 46 45 44 43 42 40
36 37 37 38 38 38 37 37 37 37 37 37 37 37 37 37 37 38 40 40 41 42 42 43 45 46 45 45 46 46 45 46 46 46 47 47 47 46 46 45 44 42 41
38 39 40 40 40 39 38 38 38 38 37 37 36 36 36 37 37 38 39 40 41 42 43 44 45 47 47 46 46 45 46 47 46 46 47 48 48 47 47 46 45 44 42
41 41 41 41 40 39 38 38 38 37 37 37 37 37 37 37 38 39 39 40 41 42 43 44 45 46 48 48 47 46 46 46 46 46 47 48 49 49 48 47 46 45 43
42 43 42 41 40 40 39 39 38 37 36 36 36 36 37 37 38 39 40 41 42 43 44 44 45 47 48 49 48 47 47 46 46 47 47 47 49 50 49 48 47 45 44
44 43 42 41 40 40 39 39 37 36 35 35 35 35 36 37 37 38 39 40 42 43 44 45 46 47 48 50 50 49 48 47 46 47 48 47 48 49 50 49 48 47 45
44 43 42 41 40 40 39 38 36 35 34 34 34 33 34 35 36 37 38 39 40 42 44 45 46 47 49 50 51 51 50 48 46 45 47 47 48 49 51 51 50 48 47
44 43 42 41 40 39 38 36 34 33 33 33 33 33 32 33 34 35 37 38 39 41 44 46 47 48 49 51 52 52 52 50 48 46 46 46 48 49 51 52 51 49 48
44 43 42 41 39 37 36 35 34 33 32 32 32 32 32 32 33 34 35 37 39 41 43 45 47 48 49 51 53 53 53 52 50 49 47 47 47 48 49 52 52 50 50

GEFSMA_500_meanwind_072.txt.gz
Wind_Speed
20 21 21 21 21 21 21 22 23 24 23 22 22 22 21 21 21 20 21 21 21 21 22 23 23 23 24 24 24 23 22 20 20 19 18 16 15 14 13 12 10 9 7
19 20 21 21 21 20 20 22 23 23 23 23 22 22 21 22 22 21 21 21 22 22 23 25 25 25 25 26 26 25 25 24 23 22 21 19 18 17 16 14 12 11 9
20 21 21 21 21 21 21 22 23 23 23 23 23 23 23 23 23 23 23 22 23 23 23 25 26 26 27 27 28 28 28 27 26 25 24 22 21 19 18 17 15 13 12
21 22 22 22 23 23 23 23 23 23 23 23 23 23 23 23 24 24 25 25 25 25 26 25 26 28 29 28 29 30 30 31 30 29 27 25 24 23 21 19 18 16 14
22 22 22 22 23 23 23 23 23 23 24 24 24 24 23 24 24 25 26 27 27 27 27 27 27 28 30 30 29 30 31 32 32 32 30 29 27 25 24 22 20 19 17
21 22 22 21 22 22 22 23 23 23 24 24 24 25 25 25 25 26 26 27 28 28 28 28 29 29 30 31 32 31 32 34 35 34 33 33 31 29 27 25 23 22 20
20 21 21 21 21 21 21 22 23 23 24 24 24 25 26 26 27 27 27 27 28 29 29 30 30 30 30 32 33 33 33 34 36 36 36 35 34 32 30 28 26 24 23
20 20 20 21 21 21 21 21 22 23 24 24 25 26 26 27 27 28 28 29 29 30 30 31 31 31 32 32 33 34 34 35 36 37 37 37 36 35 34 32 30 27 26
19 20 20 20 21 21 21 21 21 22 23 24 24 25 26 27 28 29 29 30 30 31 31 32 32 32 33 33 34 35 35 36 36 38 39 39 39 38 37 35 33 31 29
20 20 21 21 21 21 22 22 22 23 23 24 24 25 26 27 28 29 30 31 31 31 32 32 33 33 33 34 35 35 36 37 38 38 40 40 40 40 40 38 36 34 32
21 22 22 23 23 23 24 24 24 24 24 25 26 26 27 28 28 29 30 32 32 32 33 33 34 34 35 35 36 37 37 37 38 39 39 40 41 41 42 40 39 37 35
23 23 23 24 25 25 25 26 26 26 27 27 27 28 28 29 29 30 31 32 33 34 34 34 35 35 36 36 37 37 38 38 39 40 40 40 41 41 42 42 41 40 37
24 24 24 25 25 26 27 28 28 29 29 29 30 30 30 31 31 32 33 33 34 35 35 36 36 37 37 38 37 37 38 39 39 40 41 42 42 41 42 43 43 42 40
25 25 26 26 27 28 29 29 30 30 31 31 32 32 32 33 33 34 34 35 35 36 37 37 38 39 39 39 39 39 40 40 40 40 41 42 43 42 42 43 44 44 42
26 26 27 28 29 30 31 32 32 32 33 33 33 34 34 34 34 35 35 36 37 37 38 39 39 40 40 40 40 40 41 42 42 41 41 43 43 43 42 43 43 44 43
27 28 29 30 31 32 33 33 34 34 34 35 35 35 36 36 37 37 37 37 37 38 38 40 41 41 41 42 41 40 40 42 43 43 42 42 43 44 43 43 43 44 44
29 30 31 33 34 34 35 35 36 36 36 36 37 37 37 38 38 38 39 39 39 39 39 39 41 42 42 42 42 42 42 42 43 43 43 43 44 45 44 43 43 44 44
30 31 33 34 35 36 37 37 37 37 37 37 37 37 37 38 38 39 39 39 39 40 40 40 41 42 42 42 42 42 43 43 43 44 44 44 44 45 45 45 43 44 44
32 33 35 36 37 38 38 38 39 38 38 37 37 37 37 38 38 38 39 39 39 40 40 40 40 41 42 42 42 42 42 43 44 44 44 45 45 45 45 46 45 44 44
33 35 36 38 39 39 39 39 39 38 37 37 37 37 37 37 37 37 38 39 39 40 40 40 39 40 41 42 42 43 43 43 43 44 44 45 45 45 46 46 45 45 45
35 37 38 40 40 40 40 39 39 38 37 37 36 36 36 36 36 36 37 38 39 39 39 40 39 39 40 42 42 43 43 43 43 43 44 44 45 45 46 46 46 45 45
38 39 40 41 41 41 41 40 39 38 37 36 36 35 35 35 35 35 36 36 37 38 38 39 39 39 40 41 43 43 43 43 43 44 44 44 45 46 47 46 46 45 45
39 41 41 42 42 42 41 41 39 38 37 37 36 35 34 34 34 34 34 35 35 36 37 38 38 39 40 41 42 43 43 43 43 43 44 43 44 45 47 46 46 46 45
42 42 42 42 42 41 41 40 40 39 37 36 35 34 33 33 33 33 33 33 33 34 35 36 36 37 39 40 42 42 43 43 43 44 44 43 43 44 45 46 46 46 46
44 43 43 43 42 41 41 40 40 38 37 35 35 34 33 33 32 32 32 32 32 33 34 35 35 36 38 39 41 42 43 43 43 44 44 43 43 43 44 45 46 46 46
45 44 44 43 42 41 41 41 40 39 37 36 35 34 33 33 32 32 32 32 32 33 34 35 35 36 38 39 40 42 43 44 43 44 45 44 44 45 44 44 45 46 47

GEFSMA_500_meanwind_078.txt.gz
Wind_Speed
13 13 14 15 15 15 14 14 16 17 18 20 21 21 21 21 21 21 21 20 19 19 20 20 21 20 21 21 20 20 19 18 17 16 15 14 13 13 12 11 10 8 7
13 14 14 15 14 14 14 15 16 16 17 18 19 19 20 21 21 21 20 20 19 19 20 20 21 21 21 22 22 22 21 20 20 18 17 17 16 15 14 13 12 11 9
14 14 15 15 15 15 16 16 16 17 17 17 18 19 20 21 21 20 20 20 20 20 20 21 21 21 22 23 23 23 24 23 22 21 20 19 18 17 17 16 14 13 11
14 14 15 15 15 16 16 16 16 17 17 17 18 19 20 20 21 21 21 21 21 22 21 22 22 23 23 24 25 25 25 25 25 24 23 22 21 20 19 18 17 15 14
13 14 14 14 15 15 15 15 15 16 16 17 18 18 19 20 21 21 22 22 22 22 22 23 23 23 24 25 26 27 27 27 27 27 26 25 24 23 22 21 20 18 17
13 13 14 14 14 14 14 15 15 15 16 16 17 18 19 20 21 22 22 23 23 23 23 24 25 25 25 26 27 28 29 30 29 29 28 28 28 26 25 24 22 21 19
12 13 13 13 13 13 14 14 14 15 15 16 17 18 19 20 21 21 22 23 24 24 25 25 26 26 27 27 28 29 30 31 32 31 31 30 30 30 28 27 26 24 22
11 12 13 13 13 13 13 13 14 15 15 15 16 17 18 19 20 21 22 23 24 25 26 26 27 27 27 28 28 30 31 32 33 33 33 33 32 32 32 30 29 27 26
11 12 13 13 13 13 14 14 15 16 16 16 16 17 18 19 20 21 22 23 24 25 26 27 28 28 29 29 29 30 32 33 33 34 34 35 34 34 34 33 32 31 29
12 13 14 14 14 14 15 15 16 16 17 17 17 17 18 19 20 21 22 23 24 25 26 27 28 29 30 30 31 32 33 34 34 35 35 35 36 36 36 36 35 34 32
13 14 15 15 16 16 16 17 17 18 19 19 20 20 20 21 21 22 23 24 24 25 26 28 29 30 31 32 32 33 34 34 35 36 37 37 37 37 38 38 37 37 36
14 15 16 16 17 18 18 19 19 20 21 21 22 23 23 23 24 24 25 26 26 26 27 28 30 31 32 33 34 34 35 35 36 36 37 38 38 38 39 39 39 39 38
16 16 17 17 18 19 20 21 22 22 23 23 24 24 25 26 26 27 27 28 29 29 29 30 31 32 32 33 34 35 36 37 37 37 37 38 39 39 40 40 40 40 40
17 18 18 19 20 21 22 23 24 25 26 26 26 27 27 28 28 29 30 31 31 32 32 32 33 33 33 34 36 36 37 37 38 39 38 39 40 40 39 40 40 41 42
19 20 20 21 22 23 24 26 27 28 28 28 28 29 30 30 30 31 32 32 33 34 35 36 36 36 36 36 37 38 38 39 39 40 41 40 41 41 41 40 42 42 43
20 21 22 23 24 25 26 28 29 29 29 29 30 30 31 32 32 32 33 34 34 35 35 37 38 39 39 39 39 39 40 40 41 41 42 42 42 42 43 42 42 43 43
22 23 24 26 27 28 29 30 31 31 31 31 31 32 32 33 33 34 34 35 35 36 35 37 39 39 40 40 41 41 41 41 42 42 43 44 44 44 44 44 43 44 44
24 25 26 27 29 30 31 32 33 33 33 33 33 33 33 33 33 34 34 35 36 36 36 36 38 39 40 41 42 42 43 43 43 43 44 45 45 45 45 45 45 45 45
26 27 28 29 30 32 32 33 34 34 34 33 34 34 34 34 34 34 34 34 35 35 35 35 36 38 39 41 41 42 43 44 44 44 45 45 46 46 46 46 46 46 45
27 28 29 30 31 32 33 35 35 35 34 34 35 35 35 35 35 34 34 33 34 34 35 34 35 37 38 40 41 42 43 45 45 45 45 46 46 46 46 47 47 47 47
29 30 31 32 33 34 35 36 36 36 35 36 36 36 36 35 35 34 33 33 33 33 34 34 34 35 37 39 40 41 42 44 45 45 46 46 47 46 47 48 48 48 48
31 32 33 34 35 36 36 37 37 37 37 37 36 37 37 36 35 34 34 33 33 33 34 34 34 35 36 38 39 40 41 43 44 46 46 46 47 47 47 48 48 48 48
33 34 35 35 36 37 37 38 38 37 37 37 37 37 37 36 35 35 34 33 33 33 33 33 32 33 34 36 38 39 40 41 43 45 46 46 47 47 46 47 47 49 48
34 35 36 36 37 38 39 39 39 39 39 39 38 37 36 35 35 35 34 34 33 33 33 32 32 32 33 34 36 38 39 39 40 43 46 46 47 47 47 47 47 47 49
36 37 37 38 38 39 40 40 40 40 40 39 38 37 36 35 36 35 34 33 33 33 33 33 32 32 33 34 35 36 38 39 39 42 45 46 47 48 47 48 48 48 49
38 38 39 40 40 40 41 41 41 40 40 39 39 38 37 36 36 35 34 33 32 32 32 32 32 32 32 33 34 36 37 39 39 41 44 46 47 48 48 48 48 48 49

GEFSMA_500_meanwind_084.txt.gz
Wind_Speed
13 14 14 14 14 14 15 15 15 15 15 16 16 16 16 16 15 16 16 17 17 17 18 18 17 18 18 19 19 20 20 19 18 17 16 15 14 13 12 11 10 9 7
12 13 13 14 14 14 14 14 14 14 14 14 15 16 15 15 15 15 16 16 17 17 17 19 20 19 20 20 21 22 22 22 20 19 18 17 16 15 15 14 12 11 9
12 12 12 13 13 14 14 14 15 15 14 15 15 15 15 15 15 15 15 15 16 17 18 19 20 20 21 21 22 23 23 24 23 22 21 20 19 17 17 16 15 13 12
11 11 12 12 13 13 13 13 14 14 14 14 14 14 14 15 15 15 15 16 16 17 17 18 19 20 21 22 22 24 25 25 25 25 24 23 22 20 19 18 17 16 14
10 11 11 11 11 12 12 12 12 13 13 14 14 14 14 14 15 15 16 17 17 17 18 18 19 20 20 21 22 23 25 27 27 27 27 26 25 24 22 21 20 19 17
10 10 11 11 11 11 12 12 12 12 12 13 13 14 14 14 15 15 16 17 18 18 18 19 19 20 21 21 22 23 25 27 29 30 29 28 28 26 25 24 23 21 20
9 10 10 10 11 11 11 11 11 11 12 12 13 13 13 13 14 14 15 16 17 18 19 20 21 21 22 22 23 24 25 27 28 30 31 31 30 29 28 27 26 24 23
9 9 9 10 10 10 11 11 11 11 12 13 13 13 13 13 13 14 15 16 17 18 19 20 21 22 24 24 24 25 26 27 29 30 31 32 32 32 31 30 29 27 26
8 9 9 10 10 10 11 11 12 12 13 13 14 14 14 14 14 14 15 16 17 18 19 21 22 23 24 25 25 26 28 27 29 30 31 32 33 33 33 33 32 31 29
8 8 9 10 10 10 11 11 12 13 14 15 15 16 16 16 16 16 16 17 18 19 20 21 22 24 25 26 27 28 29 30 30 31 32 33 33 34 35 35 35 34 32
8 8 9 10 10 11 12 13 14 15 16 16 16 17 18 18 19 19 19 19 20 20 21 22 23 25 26 27 29 30 30 31 32 32 33 34 35 35 35 36 37 37 36
8 9 10 11 11 12 13 14 15 17 18 18 18 18 19 19 20 20 21 21 22 22 23 24 25 26 27 28 30 31 32 33 34 34 34 35 36 36 36 37 38 38 38
8 10 10 12 13 14 15 15 17 18 18 19 19 20 20 20 21 21 22 23 24 24 25 26 27 27 28 29 31 32 33 34 35 36 36 36 37 38 38 38 38 39 40
9 11 11 13 14 15 16 17 18 19 20 20 21 21 22 22 22 22 23 24 25 26 27 28 28 29 30 31 32 34 35 35 36 37 38 39 39 39 40 40 40 40 41
11 12 14 15 16 17 18 18 20 21 21 22 22 23 23 24 24 24 24 25 26 27 29 30 30 31 31 33 34 35 36 38 39 39 39 40 41 41 41 42 42 42 42
14 15 16 17 18 19 20 21 22 22 23 23 24 24 25 25 25 25 25 26 27 27 29 31 32 32 33 33 35 37 38 39 40 41 42 42 42 43 43 44 44 44 44
16 17 18 20 21 22 22 23 23 24 25 25 26 27 27 27 27 27 27 27 28 28 29 31 32 33 34 35 36 37 39 40 42 43 44 44 44 45 45 45 46 46 45
18 20 21 22 23 24 24 25 26 26 27 27 28 28 28 28 29 29 29 29 30 30 29 30 33 34 35 35 36 38 39 41 43 44 45 46 46 46 47 47 47 48 47
20 22 23 24 25 26 27 27 28 28 29 29 30 30 30 30 30 31 31 31 31 31 31 31 32 34 35 37 37 38 39 41 43 45 46 47 48 48 48 48 49 49 49
23 24 26 26 27 28 29 30 30 30 31 31 31 31 31 32 32 33 33 33 33 33 33 32 32 33 35 36 37 38 38 40 41 43 45 47 48 49 50 50 50 51 51
26 27 28 28 29 30 31 32 32 32 33 33 33 33 34 34 34 34 34 34 34 34 34 33 33 33 34 36 37 37 38 39 40 41 43 46 48 49 51 52 52 52 52
29 29 30 31 32 32 33 33 33 34 34 34 34 35 35 36 36 35 35 35 35 35 35 35 34 34 34 36 36 37 37 38 39 41 42 44 46 48 50 52 53 53 53
31 32 33 33 34 34 34 34 34 35 35 36 36 36 37 37 37 37 37 37 36 36 35 35 34 34 35 35 36 36 37 37 38 41 42 42 45 46 49 51 53 54 54
33 34 35 36 36 36 36 36 37 37 37 38 38 38 38 39 39 39 38 37 37 37 37 36 35 34 35 35 35 36 36 36 37 39 41 41 43 45 48 50 52 54 55
36 36 37 38 38 38 39 39 39 39 39 40 40 40 40 40 40 40 39 38 38 38 37 36 35 35 35 35 35 35 35 36 36 37 40 40 41 43 45 47 50 52 54
38 39 39 40 40 40 41 41 41 41 41 41 42 42 42 41 41 41 40 39 38 38 37 37 36 35 35 35 36 36 36 36 35 35 38 39 40 42 42 44 47 50 52